Location: Centrum přírodních věd - Hvězdárna Jičín
(50.4344°N, 15.3406°E)
Time: 05:51:14
(UTC+01:00)

ISS - Pass Details

Date: 23 February 2020
Orbit: 415 x 423 km, 51.6° (Epoch: 27 February)

Event Time Altitude Azimuth Distance (km) Brightness Sun altitude
Exits shadow 05:54:53 - 215° (SW) 2,304 -0.3 -10.4°
Reaches altitude 10° 05:57:03 10° 202° (SSW) 1,497 -1.1 -10.1°
Maximum altitude 05:59:51 25° 145° (SE) 898 -1.6 -9.7°
Drops below altitude 10° 06:02:41 10° 88° (E) 1,507 0.7 -9.2°
Sets 06:05:01 0° 75° (ENE) 2,377 1.6 -8.8°
